FENGYUN 1C DEB

Satellite information

Favourite Embed

Satellite Type and Status

DEBRISIN ORBIT

Key statistics

Satellite FENGYUN 1C DEB at a glance.

Uptime

9500

Days in orbit

Revolutions

≈ 14.5

Per day

Orbit

SSO

Sun Synchronous Orbit

Inclination

99.3

Latest

Satellite identification and parameters

Extended collection of information and parameters for FENGYUN 1C DEB.

Object identification

Identified? True

Debris? True

Object name: FENGYUN 1C DEB

International designator: 1999-025ANL

Object number (NORAD): 30629

Object ID (CCSDS): 30629

Country: PEOPLES REPUBLIC OF CHINA (PRC)

Current information (Y/N): Y

RCS size: SMALL

Orbital parameters

Period: 99.051 minutes

Inclination: 99.2544 deg

SMA: 7091.405 km

Apoapsis: 719.787 km

Periapsis: 706.753 km

RAAN: 204.8471 deg

Eccentricy: 0.000919

Argument of periapsis: 125.8622 deg

Mean anomaly: 263.9177 deg

Mean motion: 14.53798831 rev/day

Mean motion (dot): 0.00009289 rev/day2

B* drag term: 0.0022219 1/REarth

Two-line elements (TLE)

Creation date: May 12, 2025, 7:41 p.m.

Reference frame: TEME

Reference center: EARTH

Epoch: May 12, 2025, 3:40 a.m. UTC

TLE line 0: 0 FENGYUN 1C DEB

TLE line 1: 1 30629U 99025ANL 25132.15321507 .00009289 00000-0 22219-2 0 9998

TLE line 2: 2 30629 99.2544 204.8471 0009190 125.8622 263.9177 14.53798831947673

Live tracking on map

Real-time ground track for satellite FENGYUN 1C DEB.

In-orbit conjunctions

A list of the most updated potential collisions computed for object FENGYUN 1C DEB.

Target Orbit TCA Probability of collision Miss distance Type
CZ-6A DEB LEO 2025-02-02 00:41:59 0.0002800968 419.0 (m) DEBRIS
COSMOS 2251 DEB LEO 2024-07-04 22:45:31 0.0002238978 109.0 (m) DEBRIS
IRIDIUM 71 LEO 2024-06-12 07:00:09 0.0001679921 991.0 (m) PAYLOAD

Associated space launch

Chinese polar orbiting meteorological satellite

FENGYUN 1C DEB was lifted into orbit during the mission ‘Long March 4B | Feng Yun 1C’, on board a Long March 4B space rocket.

The launch took place on May 10, 1999, 1:33 a.m. from Launch Complex 7.

For more information about the launch, click the button.

Launch to space Long March 4B | Feng Yun 1C
Long March 4B | Feng Yun 1C

Agency: N/A

Status: Launch Successful

Launch date: May 10, 1999, 1:33 a.m. UTC

Rocket: Long March 4B

Launch pad: Launch Complex 7

Location: Taiyuan Satellite Launch Center, People's Republic of China

...

Latest news about this satellite

There are no fresh news available about this satellite. Check back as we update our databases every day.


Newsletter sign-up

Weekly statistics, charts and insights to help you stay on top of the space industry.